#timestamp,LO_Frequency,Hit,StdDev 
1571302815.9,286047007.4,Y
1571302835.7,286047003.0,P
1571302855.6,286047005.6,P
1571302875.4,286047003.1,N
1571302895.2,286047006.0,Y
1571302915.1,286047000.3,P
1571302916.0,286047000.3,N
1571302935.8,286047001.2,N
1571302955.7,286046997.0,N
1571302975.5,286046996.9,N
1571302995.3,286046997.8,N
1571303015.2,286046995.7,N
1571303035.0,286046996.1,N
1571303035.9,286046996.1,N
1571303055.8,286046993.6,N
1571303075.6,286046992.4,N
1571303095.4,286046992.7,N
1571303115.3,286046992.0,N
1571303135.1,286046993.8,N
1571303155.8,286046991.7,N
1571303175.7,286046990.1,N
1571303195.5,286046992.4,N
1571303215.4,286046992.6,N
1571303235.2,286046990.3,N
1571303255.0,286046991.1,N
1571303255.9,286046991.1,N
1571303275.8,286046991.6,N
1571303295.6,286046988.7,N
1571303315.4,286046987.5,Y
1571303335.3,286046991.8,P
1571303355.1,286046992.9,P
1571303375.9,286046992.8,P
1571303395.7,286046992.6,Y
1571303415.5,286046998.7,P
1571303435.4,286047000.6,N
1571303455.2,286046999.7,N
1571303475.1,286047002.4,N
1571303476.0,286047002.4,N
1571303495.8,286047003.9,N
1571303515.6,286047004.2,N
1571303535.5,286047003.9,N
1571303555.3,286047000.1,N
1571303575.1,286047000.5,N
1571303595.9,286047001.2,N
1571303615.7,286047002.4,N
1571303635.6,286047001.4,N
1571303655.4,286047001.3,N
1571303675.2,286047004.4,N
1571303695.1,286047003.6,N
1571303696.0,286047003.6,N
1571303715.8,286047003.0,N
1571303735.6,286047005.7,N
1571303755.5,286047004.8,N
1571303775.3,286047008.9,Y
1571303795.2,286047006.2,P
1571303815.9,286047008.2,P
1571303835.7,286047010.0,P
1571303855.6,286047012.3,Y
1571303875.4,286047005.9,P
1571303895.2,286047003.7,P
1571303915.1,286047001.4,N
1571303916.0,286047001.4,N
1571303935.8,286047002.3,N
1571303955.7,286047002.4,N
1571303975.5,286047000.9,N
1571303995.3,286047000.2,N
1571304015.2,286047000.1,N
1571304035.0,286047004.1,N
1571304035.9,286047004.1,N
1571304055.8,286047003.7,N
1571304075.6,286047003.8,N
1571304095.4,286047003.3,N
1571304115.3,286047004.0,N
1571304135.1,286047003.2,N
1571304155.8,286047001.8,N
1571304175.7,286047001.5,N
1571304195.5,286047002.4,N
1571304215.4,286047004.4,N
1571304235.2,286047003.1,N
1571304255.0,286047005.5,Y
1571304255.9,286047005.5,P
1571304275.8,286047001.3,N
1571304295.6,286047003.6,N
1571304315.4,286047004.3,N
1571304335.3,286047002.4,N
1571304355.1,286047002.3,N
1571304375.9,286047001.4,N
1571304395.7,286047002.4,N
1571304415.5,286047000.2,N
1571304435.4,286047002.0,N
1571304455.2,286047002.4,N
1571304475.0,286046998.1,N
1571304475.9,286046998.1,N
1571304495.8,286046996.9,N
1571304515.6,286046996.6,N
1571304535.5,286046996.7,N
1571304555.3,286046996.6,N
1571304575.1,286046997.0,N
1571304595.9,286046997.2,N
1571304615.7,286046997.3,N
1571304635.5,286046997.9,N
1571304655.4,286046995.4,N
1571304675.2,286046995.7,N
1571304695.1,286046993.6,N
1571304696.0,286046993.6,N
1571304715.8,286046996.4,N
1571304735.6,286046996.4,N
1571304755.5,286046994.2,N
1571304775.3,286046994.8,N
1571304795.1,286046992.2,N
1571304815.9,286046992.2,N
1571304835.7,286046994.0,N
1571304855.6,286046991.8,N
1571304875.4,286046996.4,N
1571304895.2,286046993.7,N
1571304915.1,286046994.5,N
1571304916.0,286046994.5,N
1571304935.8,286046994.8,N
1571304955.6,286046992.6,N
1571304975.5,286046988.7,Y
1571304995.3,286046992.6,P
1571305015.2,286046990.5,P
1571305035.9,286046991.4,P
1571305055.7,286046990.3,Y
1571305075.6,286046997.8,P
1571305095.4,286046993.6,N
1571305115.2,286046992.5,P
1571305135.1,286046991.2,Y
1571305136.0,286046991.2,P
1571305155.8,286046995.9,N
1571305175.7,286046995.7,N
1571305195.5,286046996.3,N
1571305215.3,286046996.3,N
1571305235.2,286046993.6,Y
1571305255.0,286046997.0,P
1571305255.9,286046997.0,N
1571305275.8,286046998.4,N
1571305295.6,286046998.4,N
1571305315.4,286046998.2,N
1571305335.3,286046999.0,N
1571305355.1,286046999.3,N
1571305375.8,286047001.7,N
1571305395.7,286047003.8,N
1571305415.5,286047006.0,N
1571305435.4,286047005.4,N
1571305455.2,286047007.0,N
1571305475.0,286047007.1,N
1571305475.9,286047007.1,N
1571305495.8,286047006.9,N
1571305515.6,286047004.6,N
1571305535.4,286047005.3,N
1571305555.3,286047007.5,N
1571305575.1,286047003.2,N
1571305595.9,286047001.9,N
1571305615.7,286047000.9,N
1571305635.5,286047000.7,N
1571305655.4,286046999.4,N
1571305675.2,286046995.0,N
1571305695.0,286046997.5,N
1571305695.9,286046997.5,N
1571305715.8,286046998.8,N
1571305735.6,286047001.1,N
1571305755.5,286047002.7,N
1571305775.3,286047000.6,N
1571305795.1,286047001.9,N
1571305815.9,286047002.7,N
1571305835.7,286047001.3,N
1571305855.5,286047001.5,N
1571305875.4,286047002.3,N
1571305895.2,286046999.7,N
1571305915.1,286047001.5,N
1571305916.0,286047001.5,N
1571305935.8,286047003.5,N
1571305955.6,286047003.1,N
1571305975.5,286047003.0,N
1571305995.3,286047002.9,N
1571306015.1,286047004.9,N
1571306035.9,286047004.9,N
1571306055.7,286047007.0,N
1571306075.6,286047006.7,N
1571306095.4,286047004.6,N
1571306115.2,286047005.2,N
1571306135.1,286047003.0,N
1571306136.0,286047003.0,N
1571306155.8,286047001.4,N
1571306175.6,286047000.5,N
1571306195.5,286047002.3,N
1571306215.3,286046999.9,N
1571306235.2,286047000.8,N
1571306255.9,286046998.2,N
1571306275.7,286046998.9,N
1571306295.6,286047001.2,N
1571306315.4,286047000.0,N
1571306335.2,286047000.8,N
1571306355.1,286047000.6,N
1571306356.0,286047000.6,N
1571306375.8,286047001.9,N
1571306395.7,286047002.3,N
